{"data":{"norad_id":63475,"epoch":"2026-05-24T19:28:29.631648Z","epoch_age_seconds":87476,"freshness":"FRESH","line1":"1 63475U 25070R   26144.81145407  .00012690  00000+0  46986-3 0  9999","line2":"2 63475  42.9982 190.3023 0001366 275.5207  84.5489 15.27580002 64618","mean_motion":15.27580002,"eccentricity":0.0001366,"inclination_deg":42.9982,"raan_deg":190.3023,"arg_perigee_deg":275.5207,"mean_anomaly_deg":84.5489,"bstar":0.00046986,"rev_number":6461,"period_min":94.266748590232,"perigee_km":482.11185203103,"apogee_km":483.98632807083,"semimajor_km":6861.1860900509,"source":"CELESTRAK","updated_at":"2026-05-25T13:38:20.008103Z"}}